Tracking 19170 objects as of 22-May-2018
HD Live streaming from Space Station
objects crossing your sky now

IRIDIUM 60

Track IRIDIUM 60 now!
10-day predictions
IRIDIUM 60 is classified as:


NORAD ID: 25276
Int'l Code: 1998-019E
Perigee: 783.2 km
Apogee: 786.4 km
Inclination: 86.4 °
Period: 100.4 minutes
Semi major axis: 7155 km
RCS: 4.6044 m2 (large)
Launch date: March 30, 1998
Source: United States (US)
Launch site: AIR FORCE WESTERN TEST RANGE (AFWTR)
aabbcc
Your satellite tracking list
Your tracking list is empty




NASA's NSSDC Master Catalog

Two Line Element Set (TLE):
1 25276U 98019E   18141.55968630 -.00000037 +00000-0 -20323-4 0  9992
2 25276 086.3945 145.5789 0002229 083.8006 276.3444 14.34218338054352
Source of the keplerian elements: AFSPC